CW5236 Weather Reports


Display with metric or nautical units.
time (UTC)temp
F
wind
direction
speed
MPH
gust
MPH
rain 1hr
in
rain 24hr
in
rain mn
in
humidity
%
barometer
mb
20260504023507 57 196 0.0 0.0 0.00 0.00 0.00 80 1019.0
20260504023025 58 196 0.0 0.0 0.00 0.00 0.00 79 1018.9
20260504022507 58 196 0.0 2.0 0.00 0.00 0.00 78 1018.9
20260504022010 58 196 0.0 2.0 0.00 0.00 0.00 78 1018.9
20260504021526 59 196 0.0 2.0 0.00 0.00 0.00 77 1018.8
20260504021008 59 196 0.0 2.0 0.00 0.00 0.00 76 1018.8
20260504020507 59 196 0.0 0.0 0.00 0.00 0.00 75 1018.8
20260504020028 60 196 0.0 2.0 0.00 0.00 0.00 75 1018.7
20260504015511 60 196 0.0 2.0 0.00 0.00 0.00 74 1018.7
20260504015006 60 196 0.0 0.0 0.00 0.00 0.00 73 1018.6
20260504014524 60 196 0.0 0.0 0.00 0.00 0.00 72 1018.6
20260504014007 61 196 0.0 0.0 0.00 0.00 0.00 71 1018.5
20260504013506 61 196 0.0 0.0 0.00 0.00 0.00 69 1018.4
20260504013021 62 196 0.0 0.0 0.00 0.00 0.00 68 1018.4
20260504012507 62 196 0.0 0.0 0.00 0.00 0.00 67 1018.5
20260504012008 63 196 0.0 0.0 0.00 0.00 0.00 65 1018.4
20260504011509 63 196 0.0 0.0 0.00 0.00 0.00 64 1018.3
20260504011006 64 196 0.0 0.0 0.00 0.00 0.00 63 1018.3
20260504010508 64 196 0.0 2.0 0.00 0.00 0.00 62 1018.3
20260504010009 65 196 0.0 2.0 0.00 0.00 0.00 61 1018.3
20260504005505 65 190 0.0 2.0 0.00 0.00 0.00 60 1018.2
20260504005004 66 190 0.0 2.0 0.00 0.00 0.00 59 1018.1
20260504004518 66 190 0.0 2.0 0.00 0.00 0.00 57 1018.2
20260504004004 67 196 0.0 2.0 0.00 0.00 0.00 57 1018.1
20260504003511 67 194 0.0 3.0 0.00 0.00 0.00 55 1018.1
20260504003018 68 194 1.0 3.0 0.00 0.00 0.00 55 1018.0
20260504002507 68 203 0.0 3.0 0.00 0.00 0.00 53 1017.9
20260504002003 69 198 1.0 3.0 0.00 0.00 0.00 52 1018.0
20260504001505 70 248 0.0 2.0 0.00 0.00 0.00 50 1017.9
20260504001002 71 171 0.0 2.0 0.00 0.00 0.00 49 1017.9
20260504000505 72 241 1.0 2.0 0.00 0.00 0.00 47 1017.8
20260504000007 72 202 0.0 3.0 0.00 0.00 0.00 46 1017.9
20260503235502 72 196 1.0 3.0 0.00 0.00 0.00 45 1017.9
20260503235003 73 221 1.0 2.0 0.00 0.00 0.00 44 1017.8
20260503234512 73 194 0.0 2.0 0.00 0.00 0.00 45 1017.8
20260503234006 73 180 1.0 2.0 0.00 0.00 0.00 44 1017.8
20260503233505 74 255 0.0 2.0 0.00 0.00 0.00 41 1017.9
20260503233018 74 200 1.0 2.0 0.00 0.00 0.00 39 1017.8
20260503232506 74 304 0.0 3.0 0.00 0.00 0.00 40 1017.8
20260503232007 75 110 0.0 3.0 0.00 0.00 0.00 40 1017.9
20260503231520 76 165 1.0 4.0 0.00 0.00 0.00 38 1017.9
20260503231004 76 305 2.0 4.0 0.00 0.00 0.00 34 1017.8
20260503230503 76 76 1.0 3.0 0.00 0.00 0.00 33 1017.8
20260503230008 76 352 1.0 6.0 0.00 0.00 0.00 34 1017.8
20260503225503 76 46 3.0 6.0 0.00 0.00 0.00 32 1017.9
20260503225002 77 9 1.0 4.0 0.00 0.00 0.00 33 1017.8
20260503224511 76 117 1.0 3.0 0.00 0.00 0.00 31 1017.7
20260503224003 76 62 2.0 6.0 0.00 0.00 0.00 31 1017.8
20260503223503 77 100 2.0 9.0 0.00 0.00 0.00 30 1017.8
20260503223016 77 360 4.0 9.0 0.00 0.00 0.00 30 1017.7
20260503222506 77 342 3.0 8.0 0.00 0.00 0.00 31 1017.8
20260503222008 77 352 2.0 8.0 0.00 0.00 0.00 31 1017.8
20260503221526 78 84 3.0 8.0 0.00 0.00 0.00 32 1017.8
20260503221007 77 38 1.0 5.0 0.00 0.00 0.00 31 1017.8
20260503220509 77 352 1.0 5.0 0.00 0.00 0.00 29 1017.8
20260503220005 78 313 2.0 9.0 0.00 0.00 0.00 31 1017.8
20260503215504 77 331 3.0 9.0 0.00 0.00 0.00 31 1017.9
20260503215003 77 310 2.0 8.0 0.00 0.00 0.00 31 1017.9
20260503214511 78 187 1.0 7.0 0.00 0.00 0.00 29 1017.9
20260503214005 78 336 1.0 7.0 0.00 0.00 0.00 31 1018.0
20260503213506 78 56 2.0 4.0 0.00 0.00 0.00 30 1018.1
20260503213012 78 271 2.0 8.0 0.00 0.00 0.00 29 1018.1
20260503212506 78 319 1.0 8.0 0.00 0.00 0.00 29 1018.1
20260503212006 78 321 2.0 7.0 0.00 0.00 0.00 29 1018.1
20260503211517 78 336 3.0 7.0 0.00 0.00 0.00 30 1018.2
20260503211010 78 334 3.0 6.0 0.00 0.00 0.00 29 1018.3
20260503210507 78 343 2.0 9.0 0.00 0.00 0.00 29 1018.3
20260503210024 78 332 3.0 9.0 0.00 0.00 0.00 31 1018.3
20260503205508 78 360 2.0 11.0 0.00 0.00 0.00 29 1018.3
20260503205004 78 352 2.0 11.0 0.00 0.00 0.00 30 1018.4
20260503204507 78 315 2.0 8.0 0.00 0.00 0.00 30 1018.5
20260503204005 78 346 3.0 8.0 0.00 0.00 0.00 32 1018.6
20260503203507 78 82 3.0 8.0 0.00 0.00 0.00 29 1018.6
20260503203015 78 13 3.0 8.0 0.00 0.00 0.00 28 1018.7
20260503202506 79 325 2.0 7.0 0.00 0.00 0.00 30 1018.6
20260503202004 78 306 2.0 7.0 0.00 0.00 0.00 29 1018.6
20260503201518 78 37 2.0 10.0 0.00 0.00 0.00 29 1018.7
20260503201007 78 279 2.0 10.0 0.00 0.00 0.00 31 1018.8
20260503200512 78 310 4.0 9.0 0.00 0.00 0.00 32 1018.8
20260503200021 77 317 2.0 7.0 0.00 0.00 0.00 29 1018.8
20260503195508 78 323 3.0 7.0 0.00 0.00 0.00 30 1019.0
20260503195013 77 46 1.0 9.0 0.00 0.00 0.00 27 1019.2
20260503194525 77 294 4.0 9.0 0.00 0.00 0.00 29 1019.3
20260503194004 77 342 2.0 6.0 0.00 0.00 0.00 32 1019.4
20260503193504 76 10 1.0 8.0 0.00 0.00 0.00 30 1019.5
20260503193009 77 49 3.0 8.0 0.00 0.00 0.00 31 1019.7
20260503192504 77 332 3.0 8.0 0.00 0.00 0.00 30 1019.6
20260503192006 76 360 2.0 4.0 0.00 0.00 0.00 33 1019.7
20260503191520 76 281 1.0 10.0 0.00 0.00 0.00 31 1019.7
20260503191007 76 346 2.0 10.0 0.00 0.00 0.00 31 1019.8
20260503190504 76 86 4.0 11.0 0.00 0.00 0.00 31 1019.9
20260503190020 77 61 3.0 11.0 0.00 0.00 0.00 31 1020.0
20260503185505 77 5 1.0 5.0 0.00 0.00 0.00 36 1020.0
20260503185007 76 335 3.0 6.0 0.00 0.00 0.00 32 1020.1
20260503184525 76 288 0.0 11.0 0.00 0.00 0.00 35 1020.2
20260503184011 76 5 6.0 11.0 0.00 0.00 0.00 32 1020.5
20260503183507 76 5 2.0 9.0 0.00 0.00 0.00 34 1020.5
20260503183011 76 275 2.0 8.0 0.00 0.00 0.00 36 1020.6
20260503182505 75 343 2.0 8.0 0.00 0.00 0.00 35 1020.7
20260503182006 75 314 2.0 7.0 0.00 0.00 0.00 35 1020.7
20260503181513 75 294 3.0 10.0 0.00 0.00 0.00 33 1020.7
20260503181006 75 26 4.0 10.0 0.00 0.00 0.00 34 1020.8
20260503180508 75 331 4.0 10.0 0.00 0.00 0.00 33 1020.8
20260503180018 75 196 2.0 8.0 0.00 0.00 0.00 32 1020.8
20260503175507 75 103 2.0 8.0 0.00 0.00 0.00 34 1020.8
20260503175006 74 150 2.0 11.0 0.00 0.00 0.00 31 1020.8
20260503174523 75 71 4.0 11.0 0.00 0.00 0.00 31 1020.9
20260503174007 74 350 3.0 9.0 0.00 0.00 0.00 31 1020.7
20260503173507 74 30 4.0 10.0 0.00 0.00 0.00 32 1020.9
20260503173029 74 348 4.0 12.0 0.00 0.00 0.00 33 1020.9
20260503172510 74 338 5.0 12.0 0.00 0.00 0.00 31 1021.0
20260503172010 73 74 4.0 13.0 0.00 0.00 0.00 32 1021.2
20260503171512 73 24 5.0 13.0 0.00 0.00 0.00 31 1021.4
20260503171005 74 33 3.0 10.0 0.00 0.00 0.00 33 1021.3
20260503170506 73 321 2.0 11.0 0.00 0.00 0.00 34 1021.3
20260503151003 71 299 2.0 8.0 0.00 0.00 0.00 42 1022.2
20260503150503 70 327 4.0 8.0 0.00 0.00 0.00 39 1022.2
20260503131008 61 67 1.0 4.0 0.00 0.00 0.00 62 1021.3
20260503130508 61 29 1.0 4.0 0.00 0.00 0.00 61 1021.1
20260503110506 44 334 0.0 2.0 0.00 0.11 0.00 90 1020.4
20260503090509 45 334 0.0 0.0 0.00 0.27 0.00 91 1019.6
20260503081526 45 334 0.0 0.0 0.00 0.38 0.00 90 1019.5
20260503081010 45 334 0.0 0.0 0.00 0.41 0.00 89 1019.5
20260503080504 45 334 0.0 0.0 0.00 0.44 0.00 89 1019.4
20260503072507 47 334 0.0 2.0 0.00 0.56 0.00 88 1019.2
20260503072009 47 334 0.0 2.0 0.00 0.56 0.00 89 1019.3
20260503071526 47 334 0.0 2.0 0.00 0.57 0.00 88 1019.3
20260503071008 47 334 0.0 0.0 0.00 0.58 0.00 88 1019.3
20260503070513 47 334 0.0 0.0 0.00 0.60 0.00 88 1019.3
20260503055005 49 334 0.0 0.0 0.00 0.70 0.00 82 1018.9
20260503054511 49 334 0.0 2.0 0.00 0.70 0.00 82 1018.9
20260503054004 50 334 0.0 2.0 0.00 0.70 0.00 82 1019.0
20260503053504 50 334 0.0 0.0 0.00 0.70 0.00 81 1019.0
20260503053019 50 334 0.0 2.0 0.00 0.70 0.00 79 1019.0
20260503052504 50 334 0.0 2.0 0.00 0.70 0.00 79 1018.8
20260503052005 51 334 0.0 2.0 0.00 0.70 0.00 80 1018.9
20260503051506 51 334 0.0 2.0 0.00 0.70 0.00 80 1018.8
20260503051004 50 334 0.0 2.0 0.00 0.71 0.00 80 1018.8
20260503050505 50 334 0.0 0.0 0.00 0.71 0.00 79 1018.7
20260503050020 51 334 0.0 0.0 0.00 0.71 0.00 78 1018.7
20260503045509 52 334 0.0 2.0 0.00 0.71 0.71 77 1018.6
20260503045009 52 334 0.0 2.0 0.00 0.71 0.71 75 1018.7
20260503044519 53 334 0.0 2.0 0.00 0.71 0.71 73 1018.7
20260503044008 53 334 0.0 2.0 0.00 0.71 0.71 73 1018.6
20260503043504 53 334 0.0 2.0 0.00 0.71 0.71 74 1018.4
20260503043017 53 336 0.0 1.0 0.00 0.71 0.71 74 1018.3
20260503042505 53 337 0.0 2.0 0.00 0.71 0.71 74 1018.4
20260503042006 53 336 0.0 2.0 0.00 0.71 0.71 75 1018.3
20260503041506 53 337 0.0 2.0 0.00 0.71 0.71 75 1018.3
20260503041002 53 336 0.0 2.0 0.00 0.71 0.71 76 1018.3
20260503040503 52 336 0.0 2.0 0.00 0.72 0.71 77 1018.3
20260503040011 51 336 0.0 2.0 0.00 0.73 0.71 78 1018.3
20260503035504 51 336 0.0 2.0 0.00 0.74 0.71 80 1018.3
20260503035005 51 337 0.0 0.0 0.00 0.76 0.71 79 1018.3
20260503034516 51 337 0.0 0.0 0.00 0.77 0.71 78 1018.3
20260503034007 52 336 0.0 0.0 0.00 0.78 0.71 77 1018.3
20260503033507 52 336 0.0 0.0 0.00 0.79 0.71 77 1018.3
20260503033019 52 336 0.0 0.0 0.00 0.80 0.71 76 1018.3
20260503032509 52 336 0.0 0.0 0.00 0.80 0.71 76 1018.2
20260503032007 52 336 0.0 0.0 0.00 0.81 0.71 74 1018.2
20260503031519 53 336 0.0 0.0 0.00 0.81 0.71 72 1018.1
20260503031006 53 336 0.0 0.0 0.00 0.81 0.71 71 1018.1
20260503030504 54 336 0.0 0.0 0.00 0.81 0.71 69 1018.1
20260503030003 54 336 0.0 0.0 0.00 0.81 0.71 68 1018.0
20260503025504 55 336 0.0 0.0 0.00 0.81 0.71 67 1018.0
20260503025006 55 336 0.0 0.0 0.00 0.81 0.71 66 1018.0
20260503024509 56 336 0.0 2.0 0.00 0.82 0.71 64 1017.9
20260503024006 56 336 0.0 2.0 0.00 0.84 0.71 62 1017.8